Location: Newark
(60.0000°N, 100.0000°E)
Time: 06:19:57
(UTC+00:00)

N. Korean satellite - Pass Details

Date: 20 November 2019
Orbit: 455 x 506 km, 97.2° (Epoch: 12 December)

Event Time Altitude Azimuth Distance (km) Brightness Sun altitude
Rises 11:40:07 0° 218° (SW) 2,584 10.8 -21.2°
Reaches altitude 10° 11:43:12 10° 247° (WSW) 1,715 10.3 -21.6°
Maximum altitude 11:44:57 13° 276° (W) 1,544 10.1 -21.9°
Drops below altitude 10° 11:46:44 10° 305° (NW) 1,729 10.1 -22.1°
Sets 11:49:52 0° 334° (NNW) 2,625 10.6 -22.5°
